[[{"header":{"parameterUnit":"m.s-1","parameterCategory":1,"la1":30.2991,"la2":30.254,"lo1":-89.0895,"lo2":-89.0444,"dy":0.0017,"dx":0.0017,"nx":28,"ny":28,"refTime":"2025-05-23T03:00:00:Z","depth":0,"parameterNumber":2,"parameterNumberName":"U-component_of_WINDS"},"data":[0,0,0,0,0,0,0,0,0,0,0,0,0,0,0,0,0,0,0,0,0,0,0,0,0,0,0,0,0,0,0,0,0,0,0,0,0,0,0,0,0,0,0,0,0,0,0,0,0,0,0,0,0,0,0,0,0,0,-2.9549,-2.9549,0,-2.9538,-2.9538,-2.9538,-2.9466,-2.9465,-2.9463,-2.9461,-2.9452,-2.9453,-2.9455,0,0,0,0,0,0,0,0,0,0,0,0,0,-2.9511,-2.9512,-2.9549,-2.9549,-2.9549,-2.9538,-2.9538,-2.9538,-2.9467,-2.9464,-2.9462,-2.946,-2.9452,-2.9453,-2.9455,0,0,0,0,0,0,0,0,0,0,0,0,0,-2.9517,-2.9512,-2.9549,-2.9512,-2.9508,-2.9538,-2.9538,-2.9538,-2.9467,-2.9464,-2.9462,-2.9459,-2.9451,-2.9453,-2.9455,-2.9521,0,0,-2.9461,-2.9462,0,0,0,0,0,0,0,0,-2.9516,-2.9518,-2.9517,-2.9514,-2.9511,-2.9501,-2.9521,-2.9532,-2.9468,-2.9483,-2.9461,-2.9458,-2.9471,-2.9471,-2.9475,-2.952,-2.952,-2.9462,-2.9463,-2.9464,-2.9464,0,0,0,0,0,0,0,-2.9516,-2.9518,-2.9545,-2.9517,-2.9513,-2.9497,-2.9495,-2.9523,-2.9492,-2.9481,-2.9476,-2.9476,-2.9468,-2.9473,-2.9474,-2.952,-2.9462,-2.9463,-2.9465,-2.9466,-2.9621,-2.9624,0,0,0,0,0,0,-2.9521,-2.9518,-2.9545,-2.9544,-2.9507,-2.95,-2.9497,-2.9507,-2.9491,-2.9486,-2.9478,-2.9472,-2.9471,-2.9472,-2.9473,-2.9549,-2.9464,-2.9466,-2.9467,-2.9618,-2.9621,-2.9625,0,0,0,0,0,0,-2.952,-2.9524,-2.9545,-2.953,-2.9532,-2.9503,-2.9514,-2.9508,-2.9512,-2.9489,-2.9483,-2.9488,-2.9469,-2.947,-2.951,-2.9548,-2.9467,-2.9469,-2.9615,-2.9619,-2.9623,-2.9702,0,0,0,0,0,0,-2.9519,-2.9524,-2.9547,-2.9531,-2.9533,-2.9581,-2.9517,-2.951,-2.9516,-2.9509,-2.9497,-2.9492,-2.9467,-2.9507,-2.9512,-2.955,-2.947,-2.9611,-2.9617,-2.9622,-2.9696,-2.9709,-2.972,0,0,0,0,0,-2.9518,-2.957,-2.9549,-2.9552,-2.9561,-2.9583,-2.9584,-2.9553,-2.9519,-2.9543,-2.9529,-2.9493,-2.9544,-2.9512,-2.9516,-2.9555,-2.9608,-2.9615,-2.9621,-2.9691,-2.9706,-2.9719,0,0,0,0,0,0,-2.9591,-2.9567,-2.9543,-2.9591,-2.959,-2.9571,-2.96,-2.9571,-2.9579,-2.9572,-2.9534,-2.9532,-2.9577,-2.9571,-2.9535,-2.9619,-2.957,-2.9578,-2.9621,-2.9636,-2.9648,-2.9647,-2.9472,0,0,0,0,0,-2.9613,-2.9632,-2.961,-2.9655,-2.9656,-2.9629,-2.9637,-2.9614,-2.9611,-2.961,-2.9598,-2.9597,-2.9614,-2.9625,-2.9638,-2.9696,-2.9693,-2.9725,-2.9737,-2.9747,-2.9754,-2.9785,-2.9799,-2.9646,-2.9646,-2.9646,0,0,-2.9658,-2.9647,-2.9661,-2.9669,-2.9666,-2.9687,-2.9628,-2.9653,-2.9669,-2.9614,-2.965,-2.9642,-2.9639,-2.9688,-2.9709,-2.9684,-2.9796,-2.9755,-2.9763,-2.9764,-2.9793,-2.9808,-2.9821,-2.965,-2.9649,-2.9649,0,0,-2.975,-2.9744,-2.9781,-2.9779,-2.9774,-2.9756,-2.9766,-2.9752,-2.9745,-2.9781,-2.974,-2.976,-2.9788,-2.9788,-2.9791,-2.9888,-2.9856,-2.9894,-2.9955,-2.9986,-2.9998,-3.0009,-3.0043,-3.0056,-2.9901,-2.9901,-2.9902,0,-2.9806,-2.9836,-2.9804,-2.9832,-2.9837,-2.9789,-2.9827,-2.9827,-2.9828,-2.9833,-2.9805,-2.9841,-2.9835,-2.9884,-2.9908,-2.9913,-2.9923,-2.9894,-2.9999,-3.0009,-3.0018,-3.0051,-3.0064,-2.9906,-2.9905,-2.9905,-2.9905,0,-2.9906,-2.9928,-2.9959,-2.996,-2.997,-3.0003,-2.9976,-2.999,-2.9967,-2.9953,-2.9992,-2.9984,-2.9996,-3.0007,-2.9984,-3.0053,-3.0038,-3.0005,-2.9955,-3.0038,-3.0068,-3.008,-2.9913,-2.9911,-2.991,-2.9908,0,0,-3.0041,-3.0026,-3.0038,-3.0039,-3.0032,-3.0049,-3.0081,-3.0093,-3.0105,-3.0109,-3.0135,-3.0162,-3.0132,-3.0137,-3.0115,-3.0142,-3.022,-3.0106,-3.0106,-3.0127,-3.0297,-3.0321,-3.0336,-3.02,-3.0202,-3.0204,-3.0297,0,-3.0129,-3.0181,-3.0155,-3.0211,-3.0232,-3.0189,-3.0217,-3.0217,-3.0206,-3.0223,-3.0211,-3.023,-3.0189,-3.0192,-3.0218,-3.0205,-3.0254,-3.0199,-3.0225,-3.0226,-3.0225,-3.0351,-3.0376,-3.0464,-3.0309,-3.0311,-3.0312,0,-3.0238,-3.0246,-3.0305,-3.0296,-3.0304,-3.0329,-3.0339,-3.0356,-3.0356,-3.0346,-3.0353,-3.0325,-3.0358,-3.031,-3.0355,-3.0318,-3.0328,-3.0324,-3.0327,-3.0327,-3.0273,-3.0354,-3.0491,-3.0504,-3.033,-3.0329,-3.0327,0,-3.033,-3.0356,-3.0394,-3.0397,-3.0388,-3.0407,-3.0405,-3.0402,-3.0411,-3.0421,-3.0427,-3.044,-3.0447,-3.0459,-3.0436,-3.0403,-3.0485,-3.0435,-3.0478,-3.0479,-3.0495,-3.0494,-3.0635,-3.0504,-3.0504,-3.0504,-3.0503,0,-3.043,-3.0468,-3.0436,-3.0459,-3.0501,-3.0472,-3.0514,-3.0507,-3.0506,-3.0528,-3.0493,-3.0515,-3.0484,-3.0504,-3.0488,-3.0528,-3.0532,-3.0525,-3.052,-3.0527,-3.0528,-3.0532,-3.0525,-3.0507,-3.0506,-3.0506,-3.0505,0,-3.0538,-3.0519,-3.0558,-3.0547,-3.0546,-3.0577,-3.0568,-3.059,-3.0578,-3.0607,-3.0613,-3.0594,-3.0615,-3.0595,-3.0615,-3.0604,-3.0658,-3.0645,-3.0658,-3.0654,-3.0698,-3.0694,-3.0845,-3.0863,-3.0722,-3.0723,-3.0724,0,-3.0603,-3.0631,-3.0624,-3.0636,-3.0636,-3.0657,-3.0666,-3.064,-3.0652,-3.0656,-3.0678,-3.0697,-3.071,-3.0748,-3.0736,-3.0753,-3.0739,-3.0791,-3.0741,-3.0748,-3.0739,-3.0737,-3.074,-3.08,-3.0802,-3.0803,-3.0805,0,-3.072,-3.0709,-3.0724,-3.0737,-3.075,-3.0759,-3.0765,-3.0778,-3.0751,-3.0767,-3.0789,-3.0799,-3.0821,-3.0841,-3.0854,-3.0853,-3.0825,-3.0821,-3.0832,-3.0839,-3.0845,-3.0842,-3.0684,-3.0817,-3.0816,-3.0815,-3.0814,-3.0814,-3.0807,-3.0831,-3.083,-3.0849,-3.0851,-3.0859,-3.0879,-3.0871,-3.0888,-3.0904,-3.0888,-3.0915,-3.0917,-3.0932,-3.0934,-3.0956,-3.0934,-3.095,-3.0954,-3.0958,-3.0964,-3.0843,-3.0959,-3.0958,-3.0958,-3.0957,-3.0957,0,-3.0922,-3.092,-3.0938,-3.0948,-3.0964,-3.0937,-3.0943,-3.0958,-3.0982,-3.0987,-3.1001,-3.1028,-3.1048,-3.1039,-3.1057,-3.1076,-3.1064,-3.1081,-3.1079,-3.1079,-3.0982,-3.0971,-3.1091,-3.1091,-3.1091,-3.1091,-3.1091,-3.1091,-3.0983,-3.1022,-3.1012,-3.1052,-3.105,-3.1076,-3.1082,-3.109,-3.1093,-3.1124,-3.114,-3.1135,-3.1134,-3.1152,-3.117,-3.1167,-3.1175,-3.1197,-3.119,-3.1099,-3.1086,-3.1073,-3.1062,-3.1199,-3.12,-3.1285,-3.1285,-3.1286]},{"header":{"parameterUnit":"m.s-1","parameterCategory":1,"la1":30.2991,"la2":30.254,"lo1":-89.0895,"lo2":-89.0444,"dy":0.0017,"dx":0.0017,"nx":28,"ny":28,"refTime":"2025-05-23T03:00:00:Z","depth":0,"parameterNumber":3,"parameterNumberName":"V-component_of_WINDS"},"data":[0,0,0,0,0,0,0,0,0,0,0,0,0,0,0,0,0,0,0,0,0,0,0,0,0,0,0,0,0,0,0,0,0,0,0,0,0,0,0,0,0,0,0,0,0,0,0,0,0,0,0,0,0,0,0,0,0,0,3.9159,3.916,0,3.9205,3.9205,3.9206,3.9253,3.9253,3.9254,3.9255,3.9297,3.9298,3.9298,0,0,0,0,0,0,0,0,0,0,0,0,0,3.9111,3.9111,3.9159,3.916,3.916,3.9204,3.9205,3.9206,3.9252,3.9253,3.9254,3.9255,3.9297,3.9298,3.9299,0,0,0,0,0,0,0,0,0,0,0,0,0,3.9141,3.9112,3.9159,3.9189,3.9192,3.9204,3.9205,3.9206,3.9252,3.9253,3.9254,3.9255,3.9297,3.9298,3.9299,3.9284,0,0,3.9301,3.9301,0,0,0,0,0,0,0,0,3.914,3.9143,3.9184,3.9187,3.9191,3.9224,3.9204,3.9232,3.9252,3.9229,3.9255,3.9256,3.9272,3.9275,3.9281,3.9286,3.9288,3.9301,3.9302,3.9302,3.9302,0,0,0,0,0,0,0,3.9137,3.9141,3.9177,3.9185,3.9189,3.92,3.9205,3.9209,3.9244,3.9231,3.9235,3.924,3.9274,3.928,3.9282,3.9288,3.9301,3.9302,3.9302,3.9303,3.9284,3.9284,0,0,0,0,0,0,3.9131,3.9139,3.9176,3.9178,3.9167,3.92,3.9206,3.9212,3.9245,3.9251,3.9239,3.9242,3.9278,3.9281,3.9284,3.927,3.9302,3.9303,3.9303,3.9285,3.9284,3.9283,0,0,0,0,0,0,3.913,3.9134,3.9174,3.916,3.9166,3.9199,3.9206,3.9213,3.9219,3.925,3.9257,3.9239,3.9279,3.9283,3.9284,3.9272,3.9303,3.9304,3.9287,3.9285,3.9284,3.9241,0,0,0,0,0,0,3.9128,3.9133,3.9128,3.9159,3.9166,3.9173,3.9206,3.9213,3.9221,3.9225,3.9252,3.9258,3.928,3.9283,3.9285,3.9274,3.9304,3.9288,3.9286,3.9284,3.9243,3.9238,3.9233,0,0,0,0,0,3.9126,3.9113,3.9128,3.9132,3.9161,3.9173,3.9177,3.9204,3.9219,3.9215,3.9235,3.9257,3.9273,3.9282,3.9285,3.9274,3.9289,3.9286,3.9284,3.9246,3.9239,3.9233,0,0,0,0,0,0,3.9078,3.9118,3.9134,3.9131,3.9148,3.9181,3.9175,3.9196,3.9208,3.9211,3.9244,3.925,3.9247,3.9261,3.927,3.9262,3.9284,3.9282,3.9253,3.9248,3.9243,3.9239,3.9305,0,0,0,0,0,3.9067,3.9074,3.9108,3.9102,3.911,3.9141,3.9147,3.9167,3.9186,3.9193,3.9213,3.923,3.9239,3.9244,3.9254,3.9246,3.9252,3.9239,3.9234,3.923,3.9228,3.9226,3.9221,3.9276,3.9276,3.9276,0,0,3.9044,3.9067,3.9069,3.9093,3.9109,3.9115,3.9147,3.9151,3.9156,3.9193,3.9196,3.9212,3.9232,3.9229,3.9228,3.924,3.9215,3.9227,3.9224,3.9224,3.9223,3.9218,3.9213,3.9275,3.9275,3.9275,0,0,3.9006,3.9024,3.9021,3.9037,3.9061,3.9082,3.9082,3.9111,3.9124,3.9127,3.9156,3.9161,3.9176,3.919,3.9199,3.9168,3.9188,3.917,3.9144,3.9141,3.9137,3.9133,3.9123,3.9118,3.9168,3.9168,3.9168,0,3.8974,3.8985,3.9017,3.9021,3.903,3.9066,3.9064,3.9077,3.9102,3.9108,3.9121,3.9142,3.9158,3.9159,3.9151,3.9157,3.9157,3.9167,3.9135,3.9132,3.9129,3.9119,3.9115,3.9165,3.9166,3.9166,3.9166,0,3.8946,3.8953,3.8948,3.8974,3.8983,3.8983,3.9014,3.902,3.9039,3.9059,3.9063,3.9084,3.9099,3.9101,3.9119,3.9105,3.9111,3.9129,3.9152,3.9121,3.9112,3.9109,3.9162,3.9163,3.9164,3.9164,0,0,3.8877,3.8922,3.8919,3.8932,3.8962,3.8968,3.897,3.8987,3.8992,3.9008,3.9011,3.9023,3.9041,3.9051,3.9071,3.9069,3.9044,3.9087,3.9088,3.9079,3.903,3.9017,3.9012,3.9058,3.9057,3.9057,3.9028,0,3.8844,3.8852,3.8881,3.888,3.8887,3.8922,3.8924,3.8942,3.8961,3.897,3.899,3.8998,3.902,3.9027,3.9026,3.9047,3.9034,3.9049,3.906,3.906,3.9054,3.9007,3.8993,3.8965,3.9025,3.9025,3.9024,0,3.8807,3.8823,3.8823,3.8855,3.8859,3.886,3.8879,3.8887,3.8908,3.8922,3.8934,3.8958,3.8962,3.8983,3.8989,3.8998,3.9005,3.9016,3.9015,3.9017,3.904,3.9008,3.8957,3.8953,3.9019,3.902,3.902,0,3.8758,3.878,3.8783,3.8793,3.8829,3.883,3.8845,3.8868,3.8876,3.8892,3.8898,3.8913,3.8921,3.8932,3.8959,3.8972,3.8962,3.8985,3.8973,3.8973,3.897,3.897,3.8919,3.8973,3.8973,3.8973,3.8973,0,3.8718,3.8717,3.8762,3.8764,3.8764,3.8797,3.8795,3.8813,3.8834,3.8839,3.887,3.8874,3.8909,3.8918,3.8938,3.8941,3.8944,3.8955,3.896,3.8952,3.8951,3.8957,3.8959,3.8972,3.8972,3.8973,3.8973,0,3.8663,3.8693,3.8699,3.8734,3.8743,3.8741,3.8771,3.8774,3.8795,3.8802,3.8805,3.8838,3.8849,3.8877,3.8896,3.891,3.8907,3.8916,3.89,3.8903,3.889,3.8891,3.8842,3.8837,3.8893,3.8893,3.8892,0,3.8637,3.8637,3.8673,3.8679,3.8694,3.8704,3.8714,3.8747,3.8755,3.8781,3.8781,3.8795,3.8808,3.8825,3.885,3.8864,3.8875,3.8857,3.8877,3.8869,3.8875,3.8875,3.8876,3.8852,3.8851,3.8851,3.885,0,3.8586,3.8601,3.8615,3.8634,3.8645,3.8661,3.8679,3.8682,3.8719,3.8727,3.8741,3.8751,3.8771,3.8785,3.8803,3.8818,3.884,3.8844,3.8842,3.8834,3.8824,3.883,3.8888,3.8844,3.8845,3.8845,3.8846,3.8846,3.8545,3.8547,3.8573,3.8588,3.8605,3.8621,3.8626,3.8649,3.8661,3.8681,3.8699,3.8711,3.8733,3.876,3.8774,3.8783,3.8794,3.8791,3.879,3.8789,3.8786,3.8823,3.8786,3.8786,3.8786,3.8786,3.8787,0,3.8497,3.8516,3.8529,3.8554,3.8565,3.8586,3.8607,3.8615,3.8625,3.8645,3.8658,3.8674,3.8688,3.8714,3.873,3.8732,3.8743,3.8735,3.8736,3.8739,3.8774,3.8775,3.8727,3.8727,3.8727,3.8727,3.8727,3.8727,3.8473,3.8479,3.8497,3.8512,3.853,3.8543,3.8554,3.8569,3.8585,3.8601,3.8614,3.8631,3.8654,3.8672,3.8686,3.8693,3.8698,3.8687,3.8698,3.873,3.8736,3.8741,3.8742,3.8688,3.8688,3.8661,3.8661,3.8661]}]]